Location: Bathurst
(33.4193°S, 149.5775°E)
Time: 23:49:10
(UTC+10:00)

Hubble Space Telescope - Visible Passes

Search period start: 26 May 2018 00:00
Search period end: 05 June 2018 00:00
Orbit: 537 x 541 km, 28.5° (Epoch: 25 May)

Date Brightness Start Highest point End Pass type
(mag) Time Alt. Az. Time Alt. Az. Time Alt. Az.
26 May 2.0 17:40:19 10° NW 17:44:06 34° N 17:47:53 10° ENE visible
26 May 2.5 19:21:05 10° WNW 19:23:36 30° NW 19:23:36 30° NW visible
27 May 1.9 17:29:52 10° WNW 17:33:43 37° N 17:37:35 10° ENE visible
27 May 2.1 19:10:45 10° WNW 19:13:54 36° NNW 19:13:54 36° NNW visible
28 May 1.8 19:00:26 10° WNW 19:04:14 37° N 19:04:14 37° N visible
29 May 2.0 18:50:07 10° WNW 18:53:55 34° N 18:54:38 31° NNE visible
30 May 2.3 18:39:51 10° WNW 18:43:31 30° NNW 18:45:06 23° NNE visible
31 May 2.6 18:29:36 10° WNW 18:33:08 26° NNW 18:35:40 15° NE visible
01 Jun 2.9 18:19:25 10° WNW 18:22:43 23° NNW 18:26:01 10° NE visible
02 Jun 3.2 18:09:18 10° WNW 18:12:18 19° NNW 18:15:19 10° NNE visible
03 Jun 3.4 17:59:17 10° WNW 18:01:53 16° NNW 18:04:28 10° NNE visible
04 Jun 3.6 17:49:29 10° NW 17:51:27 13° NNW 17:53:23 10° N visible
